NOAA 16 DEB, 41500

Orbit data source: Space-Track

NOAA 16 DEB, 41500 is space debris in SSO originally from a launch on Thu, 21 Sep 2000 UTC launched from the Air Force Western Test Range (AFWTR). Debris objects in space refer to the collection of defunct objects orbiting the Earth. Examples of debris include non-operational satellites, rocket bodies, and fragments generated from explosions, collisions, or faulty payload assembly.

Loading next visibility...
Identifier
41500, 2000-055LY
Orbit
SSO
Country
Flag of USUS
Related business
Manufacturer
Unknown
Mission
Spacecraft
Bus & Motor
Unknown
Mass
Unknown
Launch date (UTC)
2000-09-21 (26 years ago)
Launch vehicle
Unknown
Launch site
Air Force Western Test Range (AFWTR)
Object type
Payload
Rocket body
Debris
Shape & HBR
Unknown shape, 0.1 m
Radar Cross Section
Medium (>0.1 m² and <1 m²)

Expand to show TLE details & history
Last TLE update: 1 day ago

TLE from 1 day ago
0 NOAA 16 DEB
1 41500U 00055LY  26235.11524525  .00004956  00000-0  11790-2 0  9997
2 41500  99.0022 117.1548 0027519 305.9850  53.8793 14.54108943545351
Epoch: 2026-08-23T02:45Z
TLE epoch observation values (Epoch: 2026-08-23T02:45:57.189Z)
Latitude
-0.00003°
Longitude
104.25058°
Altitude
703.742 km
Speed
7.51 km/s
True Right ascension
07h 48m 37s
True Declination
0° 00' 00"
Sunlit
Object was in daylight at epoch
Visualization orbit readout
Latitude
Unknown
Longitude
Unknown
Altitude
Unknown
Speed
Unknown
Apparent Right ascension
Unknown
Apparent Declination
Unknown
Sunlit
N/A
Visualization observer readout
Local Sidereal Time
21:09:38
Azimuth
Unknown
Elevation
Unknown
Doppler factor
Unknown
Orbital elements
Apogee altitude
728.892 km
Perigee altitude
689.883 km
Semi-major axis
7,087.524 km
Eccentricity
0.00275
Inclination
99.0022°
RAAN
117.1548°
Arg. of periapsis
305.985°
True anomaly
54.13454°
Mean anomaly
53.8793°
Eccentric anomaly
54.00687°
Mean motion
3.63749 °/min
Orbital period
98.97 mins
BSTAR
0.001179
Loading maneuver chart data...
Computing Atmospheric mass density...
Loading historical data...
Loading historical data...
Loading historical data...
Loading historical data...
Loading historical data...
Loading historical data...
Loading historical data...

Documentation

Showing up to 5 results
|